Flag for U.S.A. Weather past 2 weeks in Leesburg, Virginia, U.S.A.

Now
45 °F

Sunny.


Feels Like: 40 °F
Forecast: 32 / 51 °F
Wind: 9 mph from Northeast

Location: Leesburg / Godfrey


UV Index: 5 (Moderate)

Visibility: 10 mi


Pressure: 30.45 "Hg

Humidity: 39%

Dew point: 21 °F

Location of LeesburgLocation

Historic Weather in Leesburg

°F

Leesburg temperature yesterday

Maximum temperature yesterday: 70 °F (at 12:55 AM)
Minimum temperature yesterday: 36 °F (at 11:15 PM)
Average temperature yesterday: 54 °F

Past Weeks' High & Low Weather Summary

 TemperatureHumidityPressure
High86 °F (Apr 13, 3:15 PM)100% (Apr 2, 5:35 AM)30.47 "Hg (Apr 2, 5:35 AM)
Low32 °F (Apr 6, 7:15 AM)22% (Apr 12, 4:35 PM)29.47 "Hg (Apr 8, 5:55 AM)
Average56 °F65%29.99 "Hg
* Reported Apr 1 2:15 PM — Apr 16 2:15 PM, Leesburg, Weather by CustomWeather, © 2014

Note: Actual official high and low records may vary slightly from our data, if they occured in-between our weather recording intervals... More about our weather records

Advertising

Historic Weather Conditions — Data for Previous 24 hours

 ConditionsComfort  
Time TempWeatherWind HumidityBarometerVisibility
2:15 PM
Apr 16
45 °FSunny.8 mph39%30.46 "Hg10 mi
1:35 PM45 °FSunny.8 mph37%30.47 "Hg10 mi
1:15 PM43 °FSunny.12 mph36%30.47 "Hg10 mi
12:55 PM43 °FSunny.13 mph42%30.47 "Hg10 mi
12:35 PM41 °FSunny.9 mph45%30.47 "Hg10 mi
12:15 PM41 °FSunny.12 mph42%30.47 "Hg10 mi
11:55 AM41 °FSunny.12 mph42%30.47 "Hg10 mi
11:35 AM39 °FSunny.12 mph42%30.47 "Hg10 mi
11:15 AM37 °FSunny.9 mph48%30.47 "Hg10 mi
10:55 AM37 °FSunny.8 mph45%30.46 "Hg10 mi
10:35 AM37 °FSunny.14 mph45%30.46 "Hg10 mi
10:15 AM37 °FSunny.12 mph52%30.46 "Hg10 mi
9:55 AM36 °FSunny.15 mph56%30.44 "Hg10 mi
9:15 AM34 °FSunny.14 mph56%30.41 "Hg10 mi
8:55 AM34 °FSunny.12 mph56%30.41 "Hg10 mi
8:35 AM34 °FSunny.14 mph51%30.40 "Hg10 mi
8:15 AM34 °FSunny.14 mph51%30.37 "Hg10 mi
7:55 AM32 °FSunny.16 mph55%30.37 "Hg10 mi
7:35 AM32 °FSunny.13 mph60%30.35 "Hg10 mi
7:15 AM32 °FClear.10 mph60%30.34 "Hg10 mi
6:55 AM32 °FClear.9 mph60%30.33 "Hg10 mi
6:35 AM32 °FClear.13 mph64%30.30 "Hg10 mi
6:15 AM32 °FClear.15 mph60%30.29 "Hg10 mi
5:55 AM32 °FClear.14 mph60%30.27 "Hg10 mi
5:35 AM32 °FClear.15 mph60%30.26 "Hg10 mi
5:15 AM32 °FClear.14 mph60%30.26 "Hg10 mi
4:55 AM32 °FClear.15 mph64%30.25 "Hg10 mi
4:35 AM32 °FClear.20 mph64%30.22 "Hg10 mi
4:15 AM32 °FClear.15 mph69%30.22 "Hg10 mi
3:55 AM32 °FClear.15 mph69%30.20 "Hg10 mi
3:35 AM32 °FClear.18 mph69%30.19 "Hg10 mi
3:15 AM32 °FClear.15 mph69%30.17 "Hg10 mi
2:55 AM32 °FClear.16 mph69%30.17 "Hg10 mi
2:35 AM34 °FPassing clouds.15 mph65%30.16 "Hg10 mi
2:15 AM34 °FMostly cloudy.20 mph60%30.15 "Hg10 mi
1:55 AM34 °FMostly cloudy.17 mph60%30.15 "Hg10 mi
1:35 AM34 °FPartly cloudy.20 mph65%30.14 "Hg10 mi
1:15 AM34 °FPartly cloudy.16 mph60%30.13 "Hg10 mi
12:55 AM34 °FPassing clouds.25 mph60%30.13 "Hg10 mi
12:15 AM36 °FPassing clouds.20 mph60%30.11 "Hg10 mi
11:55 PM
Apr 15
36 °FPartly cloudy.26 mph60%30.07 "Hg10 mi
11:15 PM36 °FPassing clouds.20 mph70%30.07 "Hg10 mi
10:55 PM37 °FOvercast.29 mph65%30.04 "Hg10 mi
10:35 PM37 °FPassing clouds.22 mph70%30.04 "Hg10 mi
10:15 PM37 °FPartly cloudy.23 mph70%30.02 "Hg10 mi
9:55 PM37 °FOvercast.21 mph75%30.00 "Hg10 mi
9:35 PM37 °FMostly cloudy.30 mph81%29.97 "Hg10 mi
9:15 PM39 °FMostly cloudy.21 mph75%29.97 "Hg10 mi
8:55 PM39 °FMostly cloudy.21 mph81%29.94 "Hg10 mi
8:35 PM37 °FCloudy.14 mph93%29.94 "Hg10 mi
6:55 PM39 °FLight rain. Mostly cloudy.24 mph93%29.83 "Hg4 mi
6:35 PM39 °FLight rain. Mostly cloudy.14 mph93%29.85 "Hg2 mi
6:15 PM41 °FRain. Mostly cloudy.15 mph93%29.85 "Hg3 mi
5:55 PM43 °FRain. Cloudy.17 mph93%29.83 "Hg4 mi
5:15 PM43 °FLight rain. Cloudy.18 mph93%29.78 "Hg2 mi
4:55 PM45 °FHeavy rain. Cloudy.16 mph87%29.80 "Hg5 mi
4:35 PM45 °FDrizzle. Mostly cloudy.20 mph93%29.74 "Hg7 mi
4:15 PM45 °FRain. Cloudy.20 mph93%29.75 "Hg10 mi
3:55 PM45 °FHeavy rain. Cloudy.15 mph100%29.73 "Hg2 mi
3:35 PM45 °FLight rain. Cloudy.16 mph100%29.73 "HgN/A
3:15 PM46 °FLight rain. More clouds than sun.20 mph93%N/A5 mi
Weather by CustomWeather, © 2014

See weather overview